Location: Azul
(36.7830°S, 59.8500°W)
Time: 17:18:24
(UTC-03:00)

ISS - Pass Details

Date: 03 March 2021
Orbit: 417 x 422 km, 51.6° (Epoch: 26 February)

Event Time Altitude Azimuth Distance (km) Brightness Sun altitude
Rises 20:20:37 0° 222° (SW) 2,405 1.2 -9.8°
Reaches altitude 10° 20:22:56 10° 209° (SSW) 1,533 -0.2 -10.2°
Maximum altitude 20:25:58 28° 148° (SSE) 836 -2.4 -10.8°
Enters shadow 20:28:03 16° 96° (E) 1,213 -2.0 -11.2°
